Location: Go�ngahuizen
(53.0821°N, 5.8849°E)
Time: 13:17:43
(UTC+00:00)

Meteor 1-20 Rocket - Pass Details

Date: 09 April 2020
Orbit: 819 x 892 km, 81.2° (Epoch: 27 May)

Event Time Altitude Azimuth Distance (km) Brightness Sun altitude
Rises 23:08:34 0° 347° (NNW) 3,502 8.7 -28.6°
Reaches altitude 10° 23:11:05 10° 351° (N) 2,551 7.7 -28.6°
Maximum altitude 23:16:50 63° 73° (ENE) 972 4.4 -28.7°
Enters shadow 23:16:53 63° 75° (ENE) 972 4.4 -28.7°
